Weather History for Alexandroupoli, Greece

Change the Weather History Date:

Friday, January 18, 2013

  Actual Average Record
Temperature  
Mean Temperature 51 °F -  
Max Temperature 55 °F 48 °F 59 °F (2014)
Min Temperature 47 °F 35 °F 24 °F (2012)
Degree Days  
Heating Degree Days 14    
Growing Degree Days 1 (Base 50)    
Moisture  
Dew Point 49 °F    
Average Humidity 89    
Maximum Humidity 100    
Minimum Humidity 69    
Precipitation  
Precipitation 0.16 in 0.08 in - ()
Sea Level Pressure  
Sea Level Pressure 29.53 in    
Wind  
Wind Speed - ()    
Max Wind Speed -    
Max Gust Speed -    
Visibility 5.0 miles    
Events Rain , Thunderstorm    
Averages and records for this station are not official NWS values.
T = Trace of Precipitation, MM = Missing Value Source: Averaged Metar Reports

Daily Weather History Graph

Daily Weather History Graph

Search for Another Location

Airport:

Trip Planner

Search our weather history database for the weather conditions in past years. The results will help you decide how hot, cold, wet, or windy it might be!

Date:

Astronomy

Jan. 18, 2013 Rise Set
Actual Time 7:37 AM EET 5:16 PM EET
Civil Twilight 7:07 AM EET 5:46 PM EET
Nautical Twilight 6:33 AM EET 6:20 PM EET
Astronomical Twilight 6:00 AM EET 6:52 PM EET
Moon 11:02 AM EET (1/18) No Moon Set
Length of Visible Light 10h 39m
Length of Day
9h 39m
Waxing Crescent, 44% of the Moon is Illuminated
Jan 18
Waxing Crescent
Jan 19
First Quarter
Jan 27
Full
Feb 3
Last Quarter
Feb 10
New

Hourly Weather History & Observations

Time (EET) Temp. Dew Point Humidity Pressure Visibility Wind Dir Wind Speed Gust Speed Precip Events Conditions
12:20 AM 51.8 °F 48.2 °F 88% 29.68 in - North - - N/A Rain Light Rain
12:50 AM 51.8 °F 48.2 °F 88% 29.68 in - North - - N/A Rain Light Rain
1:20 AM 51.8 °F 48.2 °F 88% 29.68 in - North - - N/A Rain Light Rain
1:50 AM 51.8 °F 48.2 °F 88% 29.68 in - North - - N/A Rain Light Rain
2:00 AM 51 °F 49 °F 88% 29.70 in 5 mi Calm Calm - - Rain Light Rain
2:20 AM 51.8 °F 48.2 °F 88% 29.68 in - North - - N/A   Overcast
2:50 AM 51.8 °F 48.2 °F 88% 29.68 in - North - - N/A   Overcast
3:20 AM 51.8 °F 48.2 °F 88% 29.68 in - North - - N/A   Overcast
3:50 AM 50.0 °F 48.2 °F 94% 29.65 in - North - - N/A   Overcast
4:20 AM 50.0 °F 48.2 °F 94% 29.65 in - North - - N/A   Overcast
4:50 AM 50.0 °F 48.2 °F 94% 29.62 in - North - - N/A   Overcast
5:20 AM 50.0 °F 48.2 °F 94% 29.62 in - North - - N/A   Overcast
5:50 AM 50.0 °F 48.2 °F 94% 29.62 in - North - - N/A   Overcast
6:20 AM 50.0 °F 48.2 °F 94% 29.62 in - North - - N/A   Overcast
6:50 AM 50.0 °F 48.2 °F 94% 29.59 in - North - - N/A   Overcast
7:20 AM 50.0 °F 48.2 °F 94% 29.59 in - North - - N/A Rain Rain
7:50 AM 50.0 °F 50.0 °F 100% 29.59 in - North - - N/A Rain Rain
8:00 AM 51 °F 49 °F 92% 29.60 in 4 mi Calm Calm - - Rain Rain
8:20 AM 50.0 °F 50.0 °F 100% 29.56 in - North - - N/A Rain Light Rain
8:50 AM 50.0 °F 50.0 °F 100% 29.56 in - North - - N/A Rain Rain
9:20 AM 53.6 °F 51.8 °F 94% 29.53 in - North - - N/A Rain Light Rain
9:50 AM 53.6 °F 51.8 °F 94% 29.53 in - North - - N/A Rain Light Rain
10:20 AM 53.6 °F 51.8 °F 94% 29.53 in - North - - N/A Rain Light Rain
10:50 AM 55.4 °F 50.0 °F 82% 29.53 in - North - - N/A   Overcast
11:20 AM 55.4 °F 51.8 °F 88% 29.53 in - North - - N/A Rain Light Rain
11:50 AM 53.6 °F 50.0 °F 88% 29.50 in - North - - N/A Rain Light Rain
12:20 PM 53.6 °F 50.0 °F 88% 29.50 in - North - - N/A Rain Light Rain
12:50 PM 55.4 °F 50.0 °F 82% 29.50 in - North - - N/A   Overcast
1:20 PM 55.4 °F 50.0 °F 82% 29.50 in - North - - N/A   Overcast
1:50 PM 55.4 °F 48.2 °F 77% 29.47 in - North - - N/A   Overcast
2:00 PM 56 °F 49 °F 69% 29.48 in 5 mi Calm Calm - -   Mist
2:20 PM 55.4 °F 48.2 °F 77% 29.47 in - North - - N/A   Overcast
2:50 PM 55.4 °F 51.8 °F 88% 29.44 in - North - - N/A Rain Light Rain
3:20 PM 55.4 °F 51.8 °F 88% 29.44 in - North - - N/A Rain Light Rain
3:50 PM 55.4 °F 50.0 °F 82% 29.42 in - North - - N/A Rain Rain
4:20 PM 55.4 °F 50.0 °F 82% 29.42 in - North - - N/A Rain Rain
4:50 PM 51.8 °F 50.0 °F 94% 29.44 in - North - - N/A Rain Rain
5:20 PM 51.8 °F 50.0 °F 94% 29.44 in - North - - N/A Rain Rain
5:50 PM 50.0 °F 48.2 °F 94% 29.44 in - North - - N/A Rain Light Rain
6:20 PM 48.2 °F 46.4 °F 93% 29.44 in - North - - N/A   Mostly Cloudy
6:50 PM 48.2 °F 44.6 °F 87% 29.47 in - North - - N/A   Mostly Cloudy
7:20 PM 48.2 °F 44.6 °F 87% 29.47 in - North - - N/A   Mostly Cloudy
7:50 PM 51.8 °F 48.2 °F 88% 29.47 in - North - - N/A   Mostly Cloudy
8:00 PM 51 °F 48 °F 85% 29.47 in 6 mi Calm Calm - -   Partly Cloudy
8:20 PM 51.8 °F 48.2 °F 88% 29.44 in - North - - N/A   Mostly Cloudy
8:50 PM 51.8 °F 48.2 °F 88% 29.44 in - North - - N/A Rain Light Rain
9:20 PM 51.8 °F 48.2 °F 88% 29.44 in - North - - N/A Rain Light Rain
9:50 PM 51.8 °F 48.2 °F 88% 29.44 in - North - - N/A   Scattered Clouds
10:20 PM 51.8 °F 48.2 °F 88% 29.44 in - North - - N/A Thunderstorm Thunderstorm
10:50 PM 51.8 °F 48.2 °F 88% 29.44 in - North - - N/A Thunderstorm Thunderstorm
11:20 PM 51.8 °F 48.2 °F 88% 29.44 in - North - - N/A   Mostly Cloudy
11:50 PM 51.8 °F 48.2 °F 88% 29.44 in - North - - N/A   Mostly Cloudy